Regional Weather Roundup
Issued by NWS Goodland, KS

Home | Current Version | Previous Version | Graphics & Text | Print | Product List | Glossary On
Versions: 1 2 3 4 5 6 7 8 9 10 11 12 13 14 15 16 17 18 19 20 21 22 23 24 25 26 27 28 29 30 31 32 33 34 35 36 37 38 39 40 41 42 43 44 45 46 47 48 49 50
179
ASUS43 KGLD 230808
RWRGLD

GOODLAND FORECAST AREA HOURLY WEATHER ROUNDUP
NATIONAL WEATHER SERVICE GOODLAND KS
200 AM MDT FRI JUN 23 2017

...OFFICIAL OBSERVATIONS...

CITY           SKY/WX    TMP DP  RH WIND       PRES   REMARKS
GOODLAND KS    CLOUDY    64  50  60 NE10      30.00F
HILL CITY KS   CLOUDY    68  59  73 N15       29.92S
IMPERIAL NEB   CLOUDY    64  46  52 E10       29.99F
MCCOOK NEB     CLOUDY    63  50  62 N5        29.96R
AKRON CO       CLOUDY    62  49  62 N7        30.11R THUNDER
BURLINGTON CO  MOCLDY    63  56  78 NE8       30.02F
LIMON CO       MOCLDY    60  55  83 E7        30.10R
$$

...UNOFFICIAL OBSERVATIONS...

CITY           SKY/WX    TMP DP  RH WIND       PRES   REMARKS
LENORA KS        N/A     63  32  31 MISG        N/A
NORTON KS      CLEAR     64  54  68 CALM      29.95R
SHARON SPRINGS   N/A     67  59  74 NE14G21     N/A
TRENTON NEB      N/A     63  32  31 E5          N/A
KIT CARSON CO    N/A     63  57  81 MISG        N/A
YUMA CO        CLOUDY    59  48  67 N3        30.06R
$$




USA.gov is the U.S. government's official web portal to all federal, state and local government web resources and services.